GFSNW_500_rhum_168.txt.gz
RH
62 61 55 50 51 42 45 50 47 44 38 38 36 31 30 33 66 49 13 13 16 26 30 29 31 37 34 26 39 39 34 27 24 23 21 21 22 22 22 28 32 28 23 15
68 65 59 51 52 47 42 47 45 42 35 39 42 37 35 32 33 37 53 72 55 14 13 12 14 19 24 27 26 26 28 31 32 28 27 26 29 31 34 32 27 20 17 15
68 67 63 54 49 53 51 48 50 49 40 38 41 41 40 41 40 37 37 38 38 50 74 74 54 29 13 10 10 10 10 12 15 16 16 18 18 19 18 16 14 11 9 7
72 67 70 60 48 56 54 60 50 48 51 44 38 35 36 35 35 36 39 39 38 37 36 35 34 35 47 62 64 56 39 15 9 8 7 7 7 7 7 7 7 5 7 6
76 67 72 65 57 56 62 55 59 51 52 49 42 41 37 35 31 29 32 30 29 31 36 36 32 30 32 27 28 28 28 32 51 62 57 53 45 36 36 41 51 55 57 62
71 73 68 67 60 57 55 55 53 53 55 55 52 44 40 36 34 34 31 28 29 27 26 27 29 31 29 34 30 28 24 21 19 21 24 26 28 35 35 32 32 33 29 29
66 71 70 65 58 52 54 51 52 53 56 62 58 49 43 39 34 33 33 32 31 30 32 34 33 26 25 25 22 23 24 20 16 17 19 16 20 24 27 27 29 26 25 25
73 76 77 66 56 56 53 52 50 55 59 58 55 46 39 40 39 40 37 35 35 33 32 32 32 32 30 36 38 35 27 22 19 18 18 17 22 25 28 26 28 31 29 27
80 73 82 76 69 58 55 47 47 44 47 48 47 45 44 44 41 39 38 40 38 36 35 37 34 31 29 30 35 41 47 45 36 29 23 15 16 17 19 21 21 23 24 24
82 79 80 83 77 71 64 60 53 46 42 44 44 45 46 48 48 48 49 49 49 48 47 44 43 39 36 31 31 33 37 39 45 44 34 30 41 31 26 25 20 20 20 21
86 87 87 85 88 89 81 69 69 67 61 54 54 57 59 59 58 58 60 65 66 58 58 54 52 44 44 44 39 37 37 40 37 36 39 38 34 36 35 29 25 21 21 22
85 86 84 87 88 86 93 93 90 86 82 76 70 70 71 74 73 76 82 84 80 74 71 63 58 56 53 53 48 51 47 48 45 44 44 45 43 39 34 30 29 30 29 31
95 99 100 95 91 89 88 92 92 91 95 100 96 97 93 93 99 98 98 100 95 91 83 76 66 59 56 57 54 55 50 52 47 47 48 47 48 42 35 34 37 37 38 39
92 94 100 100 99 98 96 90 84 87 88 93 98 89 87 96 99 98 100 100 100 96 90 82 72 67 59 56 55 52 53 50 50 42 43 40 41 45 45 44 44 41 42 42
99 98 96 96 100 97 97 96 88 83 93 88 92 98 95 98 98 99 100 100 96 95 92 85 76 70 68 58 52 44 47 49 45 38 43 41 42 47 50 50 46 41 36 32
97 98 100 100 100 99 97 90 94 100 100 96 81 80 90 100 100 100 99 98 96 92 90 81 69 64 64 52 42 40 44 49 48 43 47 49 50 53 56 56 53 51 49 45
96 95 99 100 100 100 100 96 94 98 100 97 86 78 74 86 96 98 94 93 91 83 72 62 60 60 63 53 44 60 61 58 56 55 55 57 62 64 63 60 54 40 23 15
98 96 95 100 98 97 100 99 98 99 100 98 87 76 79 81 78 80 78 74 74 70 70 63 66 64 62 54 66 64 61 59 57 55 51 46 37 30 21 15 11 8 9 11
88 89 87 89 89 95 98 100 98 96 94 89 77 79 87 81 85 85 83 77 70 64 59 65 64 58 58 56 54 51 45 37 28 19 14 12 10 8 8 8 9 12 17 17
92 92 87 83 88 95 97 98 95 89 94 94 84 91 100 88 84 81 77 73 75 71 66 68 65 59 49 42 36 27 22 18 15 14 13 12 11 11 13 17 17 17 15 14
100 100 100 100 100 100 100 100 91 88 87 90 92 99 98 94 90 86 83 78 77 72 65 62 60 53 44 38 31 28 27 26 24 20 19 19 18 19 16 14 18 23 24 22
100 100 100 100 100 100 100 93 92 92 96 92 96 94 94 94 92 91 86 85 81 75 65 58 51 44 40 37 33 28 23 18 14 16 19 19 17 20 24 25 24 23 21 20
100 100 100 100 96 95 92 87 90 100 100 100 96 91 85 81 76 71 66 62 54 45 37 28 27 22 13 11 13 13 13 16 21 29 28 26 27 28 27 22 21 20 15 15
98 96 94 94 91 93 95 96 95 87 78 69 63 60 55 46 32 26 20 18 16 13 10 27 31 30 30 24 18 17 23 24 28 35 45 46 42 37 32 31 28 24 24 25
86 77 66 72 76 77 69 53 50 53 50 42 36 28 16 10 8 8 7 9 12 13 37 58 58 45 42 37 36 25 24 36 50 60 67 61 57 46 37 30 30 33 29 26
46 60 67 68 63 32 18 18 17 14 11 9 9 8 7 7 9 9 13 21 28 55 77 95 68 50 42 48 57 64 70 75 77 75 64 60 57 48 38 34 35 31 30 29
45 38 36 17 20 25 21 14 13 13 15 15 15 12 15 17 18 22 41 60 72 93 100 78 54 56 62 65 57 63 72 80 77 68 68 56 49 44 38 41 44 42 34 32

GFSNW_500_rhum_174.txt.gz
RH
18 34 58 75 67 60 50 44 46 48 49 41 37 36 35 36 42 41 18 21 28 33 36 26 25 26 27 28 30 31 35 40 40 39 38 33 29 24 19 18 16 15 15 17
26 23 42 63 78 66 56 51 46 46 48 50 36 35 39 37 36 36 40 53 35 16 21 26 30 27 24 24 27 23 24 27 27 30 30 30 29 26 25 21 19 18 16 18
46 26 31 56 75 74 65 54 57 50 46 47 49 42 36 38 36 36 35 35 38 36 39 45 36 17 18 21 24 24 24 22 21 20 20 19 19 18 17 17 16 16 18 17
68 43 29 33 64 77 70 65 57 65 55 49 50 49 48 42 38 33 33 32 35 38 34 31 30 32 32 37 40 37 30 18 12 14 15 17 17 15 13 12 11 8 8 8
81 65 52 33 37 71 78 70 69 56 65 59 50 54 53 51 46 40 35 36 35 34 37 36 35 35 34 36 30 27 25 27 29 30 29 28 32 34 35 38 40 33 31 35
86 69 60 65 63 49 77 74 70 68 60 62 60 56 53 57 54 45 36 35 35 37 38 37 38 36 34 36 36 36 38 35 32 28 29 25 22 22 21 20 19 18 19 19
72 69 71 72 76 78 65 86 75 67 67 64 62 61 58 56 58 58 52 39 39 39 37 34 33 38 39 39 36 36 34 32 33 32 29 27 28 29 28 27 26 26 28 28
70 74 76 71 75 78 85 79 90 78 63 62 62 63 61 60 60 63 59 54 46 42 39 35 31 31 30 35 39 41 37 31 29 28 24 23 28 30 30 26 22 25 28 27
85 85 85 66 65 86 90 90 86 90 79 74 65 61 61 61 63 61 57 53 49 46 41 38 33 34 37 37 41 45 44 41 37 30 29 23 23 27 24 24 22 27 24 24
99 93 87 71 66 99 93 90 88 86 94 88 76 72 63 59 58 53 56 51 46 46 46 45 45 45 50 50 50 58 59 58 55 55 41 35 37 35 35 35 30 29 29 31
99 94 91 72 67 98 98 99 93 89 86 95 87 78 79 76 68 59 64 66 62 59 59 55 54 58 59 68 64 65 67 73 73 71 70 60 53 44 44 43 42 42 42 41
98 92 91 70 60 98 98 98 94 94 91 94 95 93 94 92 90 89 85 84 83 86 86 79 74 70 70 73 71 80 84 79 77 81 76 76 70 57 53 47 45 47 46 43
99 98 96 80 69 98 100 99 97 97 93 97 95 99 98 96 96 96 97 96 95 94 95 93 87 80 78 77 76 81 80 82 85 93 93 90 80 66 56 52 54 54 53 52
100 96 100 89 94 99 100 98 95 96 97 96 93 98 97 96 95 96 97 97 98 97 97 93 91 90 86 86 84 76 86 84 90 75 77 74 73 70 65 65 59 48 43 42
99 98 100 100 99 98 97 99 98 97 100 94 97 98 97 96 94 93 91 92 94 93 94 88 85 84 90 79 72 67 86 92 88 78 80 72 67 58 52 49 44 41 41 41
100 100 98 99 99 97 98 94 94 100 99 98 93 98 100 97 95 94 88 82 79 83 82 82 79 89 90 74 62 63 86 82 76 68 66 58 49 44 44 45 44 43 45 52
99 99 99 98 98 99 99 96 100 100 98 96 93 83 84 96 96 97 96 94 90 85 79 72 77 83 87 73 64 81 76 65 56 49 43 40 39 39 41 43 48 57 60 59
100 100 100 99 99 99 96 100 100 100 100 99 92 74 79 91 100 100 100 98 99 94 90 80 81 80 78 64 75 70 62 57 49 47 45 44 46 48 51 55 58 57 59 57
100 100 100 100 100 100 100 100 100 100 100 99 88 85 90 85 95 99 100 100 100 95 89 84 79 68 63 79 70 56 52 45 45 48 49 54 60 67 69 67 65 58 45 33
100 100 100 100 100 100 100 100 100 99 95 96 91 95 100 100 100 99 97 90 91 85 74 76 70 62 80 69 55 57 53 51 61 65 67 68 67 61 50 33 20 13 15 18
100 100 100 100 100 98 100 100 97 98 96 93 90 100 100 100 99 98 93 84 81 72 62 68 57 54 74 60 60 60 63 66 67 65 55 39 28 15 11 10 21 28 24 22
100 100 100 100 100 100 100 97 100 100 100 98 100 100 100 98 96 93 88 91 81 76 68 65 60 86 72 61 58 60 65 64 54 37 23 12 9 13 20 24 26 31 38 37
96 96 99 97 97 96 88 81 79 88 95 95 93 92 96 99 100 100 100 97 93 88 86 80 88 87 74 67 65 62 50 31 16 9 10 15 26 36 42 38 37 39 33 31
100 100 100 100 95 86 92 100 100 100 100 100 100 100 100 100 100 100 100 100 96 92 86 78 64 58 51 42 35 23 10 8 12 21 39 46 42 36 30 37 39 34 29 26
100 100 100 93 100 100 100 100 100 100 100 100 99 99 97 97 94 91 87 81 67 56 40 31 27 24 17 11 8 12 20 31 45 53 49 43 38 39 37 31 28 28 27 28
100 100 98 100 100 100 99 100 100 100 100 99 94 88 83 76 68 61 49 44 37 29 25 23 15 10 9 16 33 50 53 52 50 46 45 40 36 30 24 23 29 31 32 32
92 85 100 100 100 100 98 96 97 96 93 84 75 67 57 53 47 39 26 19 16 14 12 12 18 22 38 61 78 76 67 54 49 38 35 30 30 32 36 35 32 32 34 45

GFSNW_500_rhum_177.txt.gz
RH
47 45 37 17 32 59 69 64 50 53 51 47 37 33 34 35 30 33 39 19 21 28 28 28 27 23 24 28 28 32 36 38 40 38 41 33 30 27 24 20 19 18 18 20
63 59 51 34 21 35 66 68 64 50 55 51 48 43 37 35 35 32 29 39 42 30 22 19 25 25 28 27 24 24 25 30 31 33 33 35 32 29 29 30 25 22 24 22
61 67 66 62 45 27 37 70 74 65 55 59 51 50 48 42 39 34 35 31 31 32 30 36 37 32 24 17 19 20 21 21 21 22 22 23 24 24 25 24 23 21 20 18
68 76 82 75 71 57 33 41 74 75 64 58 67 54 52 52 50 43 37 36 36 35 33 33 32 30 29 27 26 28 29 27 23 16 14 16 16 16 15 15 15 16 16 17
95 91 92 88 87 68 63 59 50 74 80 67 58 66 62 56 54 51 47 43 40 41 43 42 40 40 40 39 38 34 31 25 21 20 22 23 24 21 21 24 25 26 27 29
91 90 91 92 88 77 66 66 72 62 74 78 64 61 64 65 62 57 55 48 40 39 41 42 40 39 39 37 39 42 48 44 42 39 35 29 24 23 23 22 23 23 22 24
92 88 88 93 86 75 69 69 75 71 68 79 80 64 61 64 64 65 64 61 57 52 48 41 38 37 34 35 35 40 40 37 32 34 35 38 40 33 30 28 29 28 28 29
84 83 87 85 78 71 75 76 72 69 72 72 82 83 65 59 61 64 64 67 65 62 57 52 46 43 40 36 33 31 33 38 37 36 36 31 33 38 35 31 27 30 30 28
39 70 86 91 80 65 88 85 79 68 73 82 79 87 89 74 63 61 64 66 66 63 59 55 50 46 41 38 44 50 49 48 49 43 39 34 42 44 43 39 35 37 34 36
34 61 77 82 69 70 97 96 89 79 80 95 86 82 91 87 79 71 67 62 61 61 56 53 50 52 54 51 53 59 63 63 66 66 60 53 62 57 51 50 49 51 51 53
54 64 70 65 60 75 97 98 96 93 80 95 95 86 86 87 86 85 82 80 78 74 70 70 70 66 67 73 73 76 79 84 87 91 88 80 75 68 66 63 63 61 59 58
71 68 66 65 74 90 98 98 97 92 71 89 99 100 98 95 89 88 89 86 85 80 81 78 74 78 81 82 82 91 92 94 98 100 95 90 77 71 71 66 62 58 56 52
85 77 79 73 91 96 98 98 96 95 87 75 95 100 100 98 98 97 96 96 97 96 96 94 89 82 78 80 80 85 86 92 96 97 99 93 80 68 64 59 55 53 55 56
100 100 94 91 98 97 96 99 96 96 96 86 91 99 98 98 100 98 97 98 98 96 96 92 88 86 82 79 77 73 80 86 94 80 82 76 75 69 68 66 65 64 57 47
100 100 99 98 98 97 96 98 97 98 99 94 99 99 97 97 98 98 99 98 98 96 95 94 94 90 84 71 66 63 88 97 82 69 76 73 68 67 67 66 60 54 48 43
100 98 95 96 97 97 99 98 97 97 98 98 98 95 96 98 98 98 98 98 98 97 96 92 84 85 80 64 56 59 83 81 84 76 77 78 72 65 64 59 53 48 45 43
100 100 99 99 99 98 100 97 94 100 100 98 98 92 87 96 100 100 98 99 99 97 96 87 84 83 76 65 62 96 80 72 72 67 67 66 67 62 58 53 49 46 45 46
100 100 99 100 100 100 99 99 98 100 100 100 95 80 82 99 100 100 99 98 98 96 93 85 87 83 81 65 94 77 74 72 71 76 77 71 63 58 53 49 47 46 49 54
100 100 100 100 100 98 100 100 100 100 100 99 91 88 88 95 100 100 99 100 98 93 92 92 86 75 76 98 77 70 72 64 62 66 64 57 52 55 57 59 65 67 66 57
100 100 100 100 100 100 100 100 100 100 100 97 90 90 95 100 100 100 100 100 99 91 86 88 81 76 100 84 76 69 65 61 58 57 58 60 62 62 66 68 64 54 36 19
100 100 100 100 100 100 100 100 100 98 96 94 90 96 100 100 100 100 99 94 91 85 80 88 76 77 84 71 64 58 56 61 64 64 64 66 68 71 60 39 23 11 10 8
100 100 100 100 100 100 100 100 99 97 97 95 98 100 100 99 100 100 97 97 95 90 83 82 75 85 66 56 52 57 64 65 67 70 71 63 46 25 12 11 12 15 17 21
100 100 100 100 99 100 97 96 98 100 99 100 100 100 100 100 100 100 100 98 95 93 88 82 87 67 55 53 58 66 69 69 64 53 35 14 8 9 17 28 32 35 34 33
100 100 100 100 99 99 100 100 100 100 99 98 98 100 100 98 100 99 98 100 96 85 85 90 78 68 68 68 70 64 50 34 19 10 10 12 17 23 28 33 38 37 34 28
100 100 100 100 100 100 100 100 100 99 100 100 100 99 99 99 99 98 95 99 92 90 91 82 77 71 64 51 31 14 9 12 16 20 24 31 33 36 34 36 33 34 26 28
100 98 100 100 100 100 100 100 98 97 94 97 95 93 96 99 100 99 100 95 91 83 74 63 51 29 14 10 10 19 31 28 26 36 40 34 34 33 27 25 25 25 31 37
93 99 100 100 100 100 100 100 100 100 100 100 100 99 99 96 94 90 82 74 64 44 22 14 13 15 20 32 40 35 34 41 42 40 36 38 33 30 23 22 30 36 33 29

GFSNW_500_rhum_183.txt.gz
RH
16 11 14 14 13 42 53 59 51 28 34 65 60 55 49 45 32 26 28 35 42 35 23 28 34 33 38 39 40 40 39 50 45 65 79 69 77 50 55 51 46 42 40 36
32 22 11 14 12 24 42 61 72 61 41 41 64 62 60 50 49 37 28 27 29 38 46 41 21 27 30 31 35 37 37 35 34 35 39 36 36 36 39 36 36 37 34 35
38 34 22 11 13 15 39 56 77 82 65 50 51 61 68 64 54 53 48 33 31 30 34 35 40 48 30 22 26 29 30 30 30 31 31 30 26 25 26 26 26 26 26 25
22 28 30 19 11 14 27 52 76 82 81 67 57 57 59 67 64 58 54 56 43 36 37 35 37 38 38 40 42 44 40 32 31 28 24 23 24 24 25 24 24 23 23 21
47 24 17 23 14 12 17 46 84 82 81 82 68 62 66 67 66 70 64 57 58 55 43 44 45 42 42 45 44 44 41 38 35 34 34 33 34 35 34 30 29 25 23 22
82 64 45 15 18 12 11 33 73 80 78 82 79 68 64 69 68 68 77 67 64 61 60 57 48 50 51 50 49 50 51 54 55 53 49 52 47 42 41 38 34 33 33 32
88 85 74 41 24 14 12 17 46 64 72 80 84 78 72 68 72 68 72 78 71 64 64 62 67 61 54 54 53 52 53 55 54 52 55 55 57 53 58 58 58 56 53 50
91 95 73 69 52 56 14 12 19 41 55 61 79 83 76 70 75 74 69 78 81 82 68 64 62 64 67 68 64 60 56 57 55 50 59 55 55 65 72 75 74 72 70 70
33 75 100 78 88 72 65 12 12 14 28 36 53 78 84 81 76 81 78 72 87 89 89 77 64 62 63 63 66 65 61 57 54 54 54 53 61 71 74 72 75 78 76 74
5 23 40 87 98 85 78 53 14 14 42 18 27 63 74 86 82 75 91 93 82 87 89 91 88 76 64 60 65 66 63 61 60 65 72 74 90 91 87 79 82 77 74 69
8 5 6 20 69 100 83 67 52 22 25 16 23 57 56 68 84 83 87 93 93 85 90 94 91 90 92 79 71 68 72 80 83 85 86 87 89 84 77 70 67 69 67 66
10 8 5 4 13 61 98 94 61 60 28 18 23 25 22 48 77 88 90 91 96 95 94 97 96 96 94 97 97 100 97 97 98 99 93 86 83 82 78 75 73 71 66 60
13 11 8 6 4 21 78 97 100 86 93 34 40 36 22 25 58 86 93 94 98 97 96 93 97 95 96 96 92 95 100 97 96 98 95 89 82 82 82 79 75 70 66 60
10 12 10 8 5 4 39 46 100 100 84 97 79 67 51 37 47 68 92 97 97 98 98 97 95 97 93 91 96 93 99 96 97 91 90 88 89 89 85 79 70 63 57 54
5 8 9 8 5 3 13 45 95 100 98 83 73 91 94 93 86 83 86 94 97 96 98 97 99 98 99 93 90 86 100 97 92 92 96 97 98 92 87 79 72 68 65 64
3 4 4 6 4 5 78 83 90 89 92 85 80 90 100 100 97 97 99 99 95 98 100 96 94 93 100 91 85 100 97 94 93 97 100 100 100 97 87 79 72 69 69 67
1 2 2 2 3 6 100 64 12 65 100 100 100 100 100 100 100 100 100 100 100 100 98 94 94 95 100 93 92 100 96 97 99 100 99 98 94 89 84 81 78 69 66 65
1 1 2 1 1 79 100 98 47 97 100 100 98 88 85 96 98 100 100 100 100 99 97 93 97 100 100 93 100 94 100 100 100 99 99 96 95 93 85 72 67 67 64 59
2 2 2 82 99 100 100 87 48 92 100 100 93 90 90 100 100 100 100 100 100 99 98 94 100 100 100 100 100 99 100 100 100 100 97 94 89 76 67 63 62 60 62 57
94 100 100 100 100 100 100 100 100 78 97 100 95 73 95 96 99 100 100 100 100 99 99 100 100 100 100 100 100 100 100 100 99 99 93 83 75 65 58 55 58 58 48 40
100 100 100 98 100 100 100 100 99 100 100 89 86 87 82 90 98 100 100 100 100 100 99 100 98 100 100 100 100 100 100 99 96 88 77 64 55 55 59 59 55 44 38 38
100 100 100 100 100 100 100 100 100 100 99 77 66 69 79 87 100 100 100 100 100 100 100 100 99 100 100 100 100 100 96 90 76 64 58 57 56 55 52 48 44 42 41 45
100 100 100 100 100 100 100 100 99 92 73 66 72 88 98 100 100 100 100 100 100 100 100 100 100 100 100 100 97 90 76 67 65 63 62 61 55 49 44 44 45 44 41 29
100 100 100 100 100 100 100 98 97 98 100 100 100 100 100 100 100 100 100 99 100 100 100 100 100 100 100 94 82 74 73 74 76 72 60 51 47 48 48 46 37 24 13 10
100 100 100 100 99 100 100 99 100 100 100 100 100 100 100 100 100 100 100 100 98 97 100 100 100 100 94 87 84 84 83 76 65 57 54 53 52 44 35 21 12 11 13 15
100 100 100 100 100 100 100 100 100 100 100 100 100 100 100 100 100 100 100 100 100 100 100 100 97 96 91 86 85 78 68 60 55 54 52 43 34 23 13 11 15 15 15 15
100 100 100 100 100 100 100 100 100 100 100 100 100 100 100 100 100 100 100 100 100 100 98 96 93 89 84 77 71 65 60 59 53 42 31 17 13 14 15 14 15 15 19 25

GFSNW_500_rhum_186.txt.gz
RH
32 30 29 21 16 13 15 13 39 65 73 63 44 56 64 56 53 42 28 26 28 30 34 22 28 32 35 39 41 46 51 63 86 86 79 91 81 80 71 65 60 52 51 36
34 35 37 38 35 26 13 15 12 51 75 79 68 52 57 68 61 57 47 34 28 30 31 38 38 21 25 34 37 39 39 41 45 70 73 63 60 81 76 70 51 44 43 40
32 35 45 43 40 39 33 16 13 20 56 81 79 70 61 62 69 65 61 55 45 33 33 34 35 40 42 25 28 32 34 37 40 41 40 40 38 38 42 37 36 33 31 33
59 48 33 62 55 32 34 34 19 13 23 71 84 78 73 65 64 69 71 65 60 56 43 37 38 40 39 39 42 44 39 29 27 28 28 29 30 31 30 30 30 27 27 24
78 74 66 62 73 55 34 22 26 17 13 28 82 87 78 73 66 68 72 73 69 66 61 58 42 40 41 45 44 41 42 43 42 40 40 40 38 31 25 26 24 23 22 22
88 90 69 53 65 78 66 44 25 19 18 14 38 78 86 81 74 67 73 73 74 81 72 66 65 62 47 44 44 47 50 51 53 52 47 46 53 47 43 42 41 36 36 31
28 32 73 99 79 81 75 86 65 29 18 15 18 52 68 85 88 78 71 76 77 72 81 82 70 67 70 69 56 51 51 50 49 48 51 54 55 58 54 47 52 53 55 56
12 20 15 14 45 95 92 45 78 79 49 18 15 22 47 60 70 86 80 71 78 84 74 77 88 86 69 70 70 72 70 69 63 58 54 51 54 58 61 62 66 71 74 78
16 12 12 10 6 10 57 100 81 71 79 48 22 14 19 37 54 61 84 89 89 86 93 91 76 84 94 85 69 72 74 75 74 71 64 53 53 62 72 80 87 94 90 84
27 22 20 16 11 8 6 40 100 96 74 65 41 25 14 17 28 41 54 76 96 89 84 94 97 91 85 88 96 89 80 75 74 74 70 59 60 67 76 81 85 88 87 87
12 20 26 28 24 15 8 7 36 96 82 74 64 60 29 13 15 25 33 63 78 92 96 92 92 94 94 83 92 95 100 98 91 85 78 72 85 89 92 94 90 87 86 86
5 5 10 17 24 22 13 9 7 21 62 65 99 87 85 16 14 20 26 52 58 81 96 97 95 88 92 100 90 94 98 100 98 100 94 90 88 91 92 91 88 87 88 87
4 4 4 5 11 16 16 14 10 6 11 28 61 93 94 67 22 14 18 25 37 30 65 92 91 88 93 100 98 98 100 98 98 99 94 96 96 96 95 93 94 92 90 91
2 3 4 4 4 6 11 12 13 10 5 10 16 60 100 98 88 44 17 17 26 55 42 80 88 90 95 96 100 97 98 99 98 96 99 98 95 94 96 99 97 96 96 96
2 1 2 3 4 4 5 9 8 9 8 6 6 30 72 100 100 95 86 39 48 44 45 82 98 94 100 98 89 81 100 98 94 96 100 100 100 99 97 95 94 96 99 98
12 3 1 1 2 3 2 4 5 5 26 24 8 14 50 86 100 100 99 98 98 94 97 96 95 96 100 94 79 76 99 100 98 100 99 100 98 98 100 100 100 100 100 97
98 98 42 2 1 1 2 3 5 9 5 43 15 16 12 49 89 100 99 93 98 98 100 96 96 100 100 94 82 88 97 100 99 98 100 99 99 99 99 100 100 99 97 93
40 28 71 58 5 2 2 2 3 4 48 100 77 18 10 15 69 100 100 100 100 99 99 96 99 100 100 92 91 93 100 100 100 100 100 100 100 100 100 100 100 99 97 90
60 29 74 98 51 4 2 22 4 4 99 100 86 41 26 14 40 90 100 100 100 97 98 100 100 99 94 87 98 100 100 100 100 100 100 100 100 100 100 100 100 97 79 58
100 100 100 73 11 5 39 100 93 100 100 100 99 84 82 54 62 100 100 100 100 100 99 99 93 89 89 95 99 100 100 100 100 100 100 100 100 99 100 100 90 66 52 50
86 89 20 9 14 90 100 100 100 100 100 94 100 99 85 96 97 100 100 100 100 99 93 93 84 88 93 100 100 100 100 100 100 100 100 100 100 100 96 77 60 56 55 52
83 65 70 100 100 100 100 100 100 100 100 85 82 90 92 100 96 88 100 100 100 100 82 90 86 80 96 100 100 100 100 100 100 100 100 100 100 91 70 62 60 60 55 44
79 100 100 100 100 100 100 100 100 100 98 58 67 92 85 70 95 100 100 100 97 98 100 96 88 99 100 100 100 100 100 100 100 100 100 99 87 73 72 72 67 53 40 32
100 100 100 100 100 100 99 93 81 84 95 71 64 81 93 93 100 100 100 100 100 100 99 93 96 100 100 100 100 100 100 100 100 100 98 88 81 81 71 56 42 33 28 22
100 100 100 100 100 99 98 93 96 100 98 95 98 100 100 100 100 100 100 100 100 97 95 100 100 100 100 100 100 100 100 100 99 98 95 88 74 57 44 36 31 25 19 14
100 100 100 100 100 100 100 100 100 99 99 100 100 100 100 100 100 100 100 99 98 98 100 100 100 100 100 100 100 100 100 99 99 94 76 56 46 40 34 28 21 13 8 8
100 100 100 100 100 100 100 100 100 100 100 100 100 100 100 99 100 100 100 100 100 100 100 100 100 100 100 100 100 100 100 95 80 59 49 46 38 30 24 16 8 8 9 10

GFSNW_500_rhum_189.txt.gz
RH
49 42 28 28 32 34 34 33 30 20 18 22 59 80 70 53 64 66 57 48 35 33 33 33 37 32 24 33 37 41 44 75 81 88 83 82 85 71 65 62 61 57 52 43
94 69 38 30 32 36 38 41 40 39 24 15 23 63 83 74 57 61 70 62 53 44 38 37 37 35 40 32 30 34 38 40 47 64 68 73 80 79 74 58 54 52 42 45
86 94 93 72 38 33 37 40 45 42 42 29 15 21 72 84 77 65 60 70 67 57 56 45 41 40 39 36 39 39 36 33 34 36 36 39 39 41 45 47 51 48 41 40
98 98 96 87 85 79 43 34 38 54 43 39 31 16 21 85 89 80 68 64 69 76 67 60 57 45 43 44 42 40 41 41 43 48 48 41 34 30 33 36 37 39 41 44
55 82 93 98 94 87 87 77 49 42 77 38 29 29 16 39 85 85 86 71 67 68 76 78 69 64 58 44 45 47 48 49 50 50 41 45 46 43 41 37 33 29 29 29
12 32 44 38 42 64 87 99 96 90 74 75 58 27 25 18 42 78 89 99 84 79 72 72 82 79 70 67 60 48 46 47 46 51 54 52 56 56 55 42 38 38 37 34
17 12 11 15 14 23 38 43 92 96 77 80 76 75 33 23 15 40 75 86 93 90 90 82 75 76 92 83 71 69 70 62 51 45 43 44 47 52 56 60 53 46 52 54
40 38 31 26 17 15 14 22 19 20 44 88 86 88 98 52 23 18 51 73 83 94 98 91 90 91 83 83 94 88 76 76 74 70 70 60 48 49 50 50 52 55 56 58
3 6 18 35 33 31 25 14 14 13 19 23 46 100 98 97 57 23 18 38 61 87 93 95 93 96 97 95 87 88 99 98 87 79 72 67 69 69 65 58 56 60 68 79
3 3 3 5 11 18 23 29 26 19 12 13 19 21 86 100 98 77 21 18 29 55 75 74 76 97 97 96 98 99 97 98 99 98 90 72 74 73 70 68 71 81 90 93
3 3 3 4 4 5 8 16 20 22 25 15 12 13 16 66 100 98 66 21 17 22 40 67 78 88 97 96 98 97 98 97 95 97 99 95 100 98 94 81 78 85 94 98
2 2 3 4 4 5 6 5 8 12 17 26 21 15 10 9 70 100 93 84 47 16 17 22 46 73 89 89 95 99 97 99 99 97 98 100 99 97 99 100 100 99 98 99
1 1 2 2 3 3 3 4 6 6 8 15 27 25 19 12 15 96 98 95 91 71 17 16 19 59 73 75 64 92 99 96 98 97 99 98 97 99 98 100 100 99 99 99
7 5 3 2 2 2 2 2 3 4 5 6 13 21 26 20 15 20 67 99 100 100 72 29 21 28 34 43 84 91 95 98 98 96 98 96 97 98 98 99 99 99 99 98
14 12 10 8 5 4 3 2 2 2 3 4 5 9 16 22 16 17 45 89 100 100 99 87 54 38 19 27 70 86 91 98 98 96 96 99 100 98 98 98 97 98 98 98
16 15 12 11 10 8 10 6 3 2 2 2 4 4 7 12 16 13 26 40 78 91 100 100 94 91 55 52 75 79 91 99 99 99 98 99 98 98 100 100 100 100 100 100
71 88 74 74 77 77 36 7 2 2 3 3 2 4 4 6 11 20 25 20 37 76 81 95 95 93 100 93 79 86 100 100 100 100 99 98 98 99 100 100 100 100 100 100
82 93 100 95 82 100 100 94 37 5 11 6 6 37 5 6 10 16 17 28 42 71 79 77 79 100 97 89 85 98 100 100 100 100 98 97 98 100 100 100 100 100 100 100
100 73 48 75 68 42 41 70 83 61 13 6 4 85 22 9 10 19 18 26 63 69 92 76 76 84 88 91 100 98 99 100 100 100 95 96 98 100 100 100 100 100 100 100
86 52 79 100 60 67 81 100 100 100 100 29 22 98 100 8 7 31 38 47 91 91 85 100 87 89 95 88 78 82 98 100 100 97 92 92 99 100 100 100 100 100 100 99
100 68 91 100 100 100 100 100 100 100 84 100 64 100 100 44 42 85 90 92 100 100 100 100 71 64 67 86 95 100 100 97 92 93 91 97 100 100 100 100 100 100 100 97
99 98 65 100 100 100 100 99 100 98 41 90 100 92 80 71 100 100 100 100 100 100 90 100 86 76 86 97 100 100 100 98 94 98 100 100 100 100 100 100 100 100 98 90
100 96 55 56 100 100 100 98 73 68 100 100 57 85 86 100 100 100 100 100 100 96 95 89 78 81 97 100 100 100 100 100 100 100 100 100 100 100 100 100 100 98 93 75
100 89 83 54 51 48 60 93 100 90 100 100 100 81 94 100 100 100 100 100 100 100 97 91 93 98 98 100 100 100 100 100 100 100 100 100 100 100 100 99 98 88 71 56
100 98 96 100 100 100 100 100 96 100 100 90 75 88 90 76 88 100 100 100 100 98 91 91 100 100 100 100 100 100 100 100 100 100 100 100 100 100 99 93 78 63 48 35
100 100 99 100 100 87 99 98 96 58 61 88 100 100 100 100 100 100 100 100 98 87 97 100 100 100 100 100 100 100 100 100 100 100 100 100 100 97 88 72 55 38 27 20
100 100 100 100 100 100 100 100 100 100 99 97 100 100 100 97 100 100 100 94 95 100 100 100 100 100 100 100 100 100 100 100 100 100 100 99 94 78 60 41 28 22 18 13

GFSNW_500_rhum_192.txt.gz
RH
94 85 92 88 76 73 46 32 33 39 39 37 29 20 16 37 82 78 64 63 67 60 54 47 42 42 42 42 32 35 38 46 66 73 79 86 77 78 76 74 68 56 58 61
89 89 79 84 85 88 88 66 40 36 38 43 46 40 24 16 45 84 82 71 65 68 67 61 57 46 45 48 44 46 40 36 39 39 46 50 62 81 78 59 59 48 55 57
96 99 99 95 90 89 98 87 88 66 45 39 42 49 44 31 17 40 82 89 72 68 73 73 66 62 56 46 50 51 47 49 49 45 41 38 37 39 42 45 48 53 44 42
13 34 67 59 48 50 67 94 91 92 80 76 52 42 60 49 38 21 38 79 95 74 72 74 81 76 67 65 55 51 52 53 57 57 57 50 50 41 32 33 38 40 42 43
14 12 12 10 9 9 20 29 66 78 80 93 94 87 61 57 48 41 26 38 77 97 90 76 76 80 84 77 69 66 57 56 54 57 58 61 65 59 50 43 35 30 31 32
42 39 34 36 34 28 17 11 12 26 42 45 60 90 93 74 74 68 44 21 54 74 97 93 92 87 81 81 91 77 71 69 60 54 55 50 55 60 61 62 61 53 44 36
15 19 27 38 43 46 44 34 26 17 11 16 25 41 72 100 98 90 79 39 20 36 66 95 97 94 97 94 86 92 96 85 72 66 64 57 53 54 54 57 59 62 62 53
6 5 5 5 6 7 15 31 37 35 24 18 12 14 24 34 99 93 72 81 51 20 30 59 90 87 98 99 96 98 94 93 100 84 70 65 67 72 68 61 59 60 60 64
7 6 5 4 4 3 3 4 6 15 36 36 28 20 13 14 23 48 92 92 99 39 24 22 40 71 81 94 99 98 98 99 90 89 96 86 76 74 77 76 70 68 62 56
6 6 5 4 4 4 4 4 4 4 4 5 28 36 29 20 15 16 32 93 99 99 54 26 21 30 52 74 92 98 98 97 96 100 98 95 97 94 91 85 82 82 81 76
8 7 6 5 4 4 4 3 3 3 4 3 3 6 26 34 26 16 15 52 60 93 95 72 30 21 27 41 56 81 96 96 98 99 100 98 99 98 97 91 90 97 98 95
5 5 4 4 3 3 3 3 2 2 3 3 3 3 4 12 29 23 20 15 24 80 89 80 87 56 30 28 27 44 56 83 87 90 94 100 97 94 99 98 98 96 97 98
2 2 2 2 2 2 2 2 1 2 2 2 2 2 3 5 8 14 24 22 19 27 65 100 99 94 55 32 28 28 28 34 62 79 83 93 94 99 96 98 99 100 99 96
5 6 7 8 8 8 9 8 5 7 5 3 2 2 3 4 5 7 11 19 28 40 67 55 80 85 86 74 69 38 30 45 56 65 81 94 98 98 99 96 98 96 97 100
8 10 14 14 14 14 16 16 17 16 16 11 1 2 2 3 4 5 6 9 16 28 49 36 31 62 96 87 81 81 56 33 42 61 68 94 96 96 97 92 88 85 89 93
12 15 14 15 16 18 27 44 20 14 14 20 5 2 2 3 3 4 5 6 9 16 38 51 44 49 78 86 75 84 86 74 77 80 94 96 98 98 86 80 85 82 79 79
14 16 17 29 68 100 100 69 33 58 84 70 21 5 2 2 3 3 8 8 8 15 28 51 46 59 69 52 30 58 80 97 93 100 100 99 97 93 88 88 84 78 79 82
18 82 81 84 96 100 98 73 98 100 100 100 86 15 5 3 3 3 7 59 60 18 40 42 45 53 56 33 19 38 53 75 85 100 100 97 98 96 91 89 82 80 85 88
94 94 96 93 100 80 54 65 70 100 100 100 93 71 10 5 4 6 67 90 69 51 23 19 34 50 27 16 22 42 60 64 69 97 98 99 97 98 93 91 88 84 86 93
99 100 86 92 69 98 100 100 99 98 100 100 96 78 100 39 8 9 74 100 100 91 48 41 40 24 21 27 33 53 66 71 73 97 99 100 100 97 92 95 89 89 91 94
100 84 99 100 95 100 100 100 100 96 100 88 59 62 62 73 81 50 86 90 86 92 66 49 40 17 20 38 52 74 85 96 100 100 100 100 100 95 94 90 91 95 95 98
93 93 100 100 98 100 100 92 87 100 99 67 43 44 70 84 43 30 89 99 100 100 98 72 33 17 37 57 75 94 100 100 100 100 100 100 100 99 95 95 97 100 100 98
100 100 100 100 100 100 100 98 95 89 100 85 83 84 100 68 97 100 100 100 99 70 81 48 31 42 66 70 74 100 100 100 100 100 100 100 99 100 97 95 98 97 95 95
100 91 100 100 90 55 94 95 88 96 98 100 100 100 100 71 100 100 100 100 100 93 84 83 70 68 76 98 100 100 100 100 100 100 100 100 100 95 93 96 98 100 97 94
100 70 95 68 77 92 100 96 85 91 100 100 100 100 100 90 64 78 85 68 94 96 77 88 98 100 100 100 100 100 100 100 100 100 100 100 94 94 99 100 100 97 92 83
100 99 80 67 76 85 95 94 100 98 98 100 100 100 89 99 100 100 100 96 70 76 100 100 100 100 100 100 100 100 100 100 100 100 100 99 100 100 100 97 94 88 83 74
100 100 95 67 78 87 100 100 100 100 100 100 99 98 96 84 80 98 80 70 98 100 100 100 100 100 100 100 100 100 100 99 99 100 100 100 100 98 95 92 87 79 68 55

GFSNW_500_rhum_195.txt.gz
RH
95 88 72 75 80 82 90 83 80 79 77 64 44 37 41 43 49 32 20 61 84 86 68 80 77 72 63 51 50 47 43 41 43 46 62 81 93 87 81 68 71 76 64 75
96 91 98 98 98 94 96 98 89 86 88 87 85 62 39 41 44 52 55 19 47 77 96 71 86 86 75 71 57 55 54 52 48 46 45 44 45 50 73 53 51 63 64 67
18 20 27 32 30 33 49 73 85 98 86 85 93 91 88 61 41 44 60 64 31 30 56 91 74 79 89 81 76 71 60 59 61 58 56 60 64 56 42 57 54 47 54 62
26 19 13 11 10 10 10 10 11 20 21 21 36 86 88 97 94 65 51 65 62 34 50 53 71 91 90 97 93 81 76 72 65 65 63 63 67 73 62 47 36 54 42 44
36 42 49 50 48 44 40 32 24 15 12 10 9 13 47 93 100 95 95 69 70 47 32 34 50 67 96 96 98 97 88 81 80 77 73 65 61 63 67 70 60 50 46 49
8 9 11 12 15 28 39 47 48 44 36 32 26 17 11 21 57 71 98 99 80 72 52 36 30 63 64 79 97 98 96 99 89 76 83 73 69 72 67 62 64 69 71 59
4 4 5 6 8 8 8 8 12 22 35 42 43 41 33 21 13 18 38 61 96 85 78 62 31 23 46 61 69 97 98 96 87 80 86 75 76 73 75 79 77 64 61 67
7 8 7 7 6 7 8 7 7 6 6 6 11 24 37 40 34 21 14 17 34 94 100 96 68 36 23 44 60 64 78 97 98 86 84 84 83 86 80 75 79 76 70 66
8 8 7 7 7 8 8 9 8 8 7 5 4 4 4 10 28 35 31 18 16 32 64 100 82 80 52 31 31 50 64 74 76 98 94 81 86 97 97 95 77 80 75 72
8 8 7 7 7 7 8 9 11 10 8 6 6 4 4 4 4 6 18 29 26 20 36 52 75 83 87 57 38 25 46 63 64 60 86 87 99 94 97 98 93 100 91 82
8 7 8 8 8 8 7 8 8 7 7 8 6 5 4 4 4 4 4 8 20 24 26 27 34 36 61 95 74 39 22 44 55 64 49 53 87 95 95 96 95 98 98 97
8 8 7 6 6 5 4 5 4 3 4 6 5 6 5 4 4 3 4 4 6 9 23 30 47 37 43 50 72 74 42 28 42 51 49 49 49 52 87 95 98 90 96 98
6 5 4 3 2 3 3 3 3 4 4 2 3 5 4 4 4 3 3 3 4 6 8 13 33 48 38 25 26 70 80 49 33 46 54 51 78 65 59 75 97 99 95 85
3 3 4 5 6 6 6 6 7 8 10 10 2 2 2 3 2 3 3 3 5 12 10 10 12 22 34 35 30 38 57 86 73 43 41 34 37 46 74 92 98 99 92 89
7 8 9 8 7 8 8 9 8 11 14 10 7 6 4 5 4 3 3 2 2 6 15 23 9 13 50 43 38 24 20 38 88 77 70 89 80 58 59 87 96 100 86 83
12 10 8 8 9 10 12 11 11 13 19 61 32 10 13 14 14 8 5 4 4 17 98 99 33 10 49 55 42 40 36 44 76 94 87 91 97 93 89 93 97 94 85 83
10 9 9 10 10 13 14 13 13 31 94 100 98 54 25 22 20 15 10 12 8 8 89 93 36 21 46 22 30 43 46 44 52 84 99 99 100 100 92 90 100 96 89 85
10 11 11 10 13 17 16 68 97 100 100 100 98 49 36 37 50 72 47 14 25 13 5 57 98 69 38 42 15 29 45 40 44 66 77 97 94 93 94 89 100 100 87 80
9 10 10 14 33 83 96 100 100 100 100 100 54 44 41 44 54 75 92 92 56 12 16 48 99 86 41 5 8 16 23 38 65 82 73 70 69 72 70 67 94 98 90 85
8 11 20 53 99 100 99 95 87 100 100 87 53 64 69 76 68 88 100 100 90 51 61 100 100 82 22 6 6 10 21 36 72 100 94 85 66 65 67 70 93 95 97 90
12 34 68 86 99 99 100 100 98 94 79 77 69 85 91 99 93 98 100 100 95 64 36 55 78 96 30 12 6 9 17 38 82 100 100 97 82 70 72 87 100 98 100 99
74 93 73 97 100 100 100 100 96 94 100 100 100 100 100 100 100 100 100 100 100 68 63 92 87 77 65 26 24 26 38 52 72 100 100 100 99 87 95 100 99 100 100 100
100 100 99 98 100 100 91 100 100 100 100 100 98 98 100 100 99 100 100 100 96 100 100 100 88 73 70 45 70 95 100 100 97 89 100 100 100 100 100 100 100 100 100 100
100 100 100 100 100 97 100 96 89 99 99 100 100 100 100 100 98 100 99 96 81 100 94 93 68 67 59 79 63 58 62 77 100 100 100 100 100 100 100 100 100 100 100 100
100 99 100 100 100 100 100 96 94 100 100 100 100 100 100 100 100 100 100 100 96 88 78 85 97 100 98 94 100 86 96 100 100 100 100 100 100 100 100 100 100 100 100 100
100 95 99 100 94 100 100 100 100 100 100 100 100 100 100 100 98 89 80 98 90 86 51 91 75 72 82 96 100 100 100 100 100 100 100 100 100 100 100 100 100 100 100 100
98 100 99 100 97 100 94 100 100 100 100 100 100 97 90 100 85 100 82 90 100 100 100 88 98 100 100 100 100 100 100 100 100 100 100 100 100 100 100 100 100 100 99 93

GFSNW_500_rhum_198.txt.gz
RH
93 88 85 86 84 95 100 93 86 89 93 89 90 85 80 85 91 71 42 44 47 52 51 24 36 63 81 95 94 66 58 54 53 48 48 46 48 60 78 66 60 64 65 77
27 23 20 20 30 36 33 59 78 83 69 66 79 80 85 88 91 98 97 67 43 45 51 58 32 36 51 83 86 96 82 65 61 57 58 63 66 73 58 70 58 62 54 62
50 49 50 49 45 42 38 37 24 13 11 10 11 27 80 82 73 81 97 98 93 47 45 60 65 34 47 49 78 84 96 97 80 69 65 62 69 76 80 66 53 66 46 47
56 47 39 31 23 23 24 27 31 38 41 44 42 31 14 16 18 18 36 79 100 98 78 54 68 60 34 40 53 62 82 93 97 97 86 75 64 66 68 74 73 44 56 60
19 14 9 5 4 5 5 6 7 8 9 10 14 34 48 44 22 12 10 17 84 99 90 94 67 74 57 32 35 54 59 70 93 99 98 95 78 84 67 62 69 70 55 55
9 7 5 4 4 4 4 6 6 6 5 6 7 8 9 15 38 43 31 18 12 72 93 100 100 89 80 57 40 28 52 58 66 77 97 96 88 89 84 86 79 61 65 68
7 5 5 6 6 8 9 9 8 8 7 6 6 7 7 7 7 8 33 42 32 18 37 87 78 90 97 84 73 36 27 42 58 56 66 76 97 98 99 92 94 88 80 64
11 8 8 9 10 10 10 9 8 8 7 7 7 6 6 7 8 6 7 9 33 38 28 18 52 50 66 89 86 76 33 22 43 64 59 59 66 99 96 97 100 99 96 91
9 11 13 13 13 13 12 10 9 8 6 6 6 6 6 6 6 8 6 6 7 14 33 30 21 17 38 49 60 98 88 38 28 43 65 60 54 82 81 98 100 99 100 100
14 16 17 16 15 13 11 10 10 10 9 9 8 6 6 7 7 6 8 7 5 6 7 20 32 29 25 34 39 57 73 89 69 29 37 55 60 56 71 75 84 96 98 98
17 19 20 17 14 14 13 11 8 8 8 6 7 7 6 7 7 7 7 8 6 4 4 6 8 20 29 34 47 35 59 70 91 87 40 47 51 75 72 60 56 74 81 98
22 23 22 16 14 12 10 10 8 5 5 6 5 5 5 4 4 4 5 6 6 5 12 7 8 7 10 23 34 56 48 53 74 99 91 48 30 33 51 86 77 80 72 77
25 20 16 14 11 8 7 6 4 4 4 3 2 2 3 3 3 4 4 4 5 4 10 79 44 23 10 10 13 31 35 44 48 64 66 87 46 32 31 41 74 80 84 93
20 15 11 9 7 5 4 3 6 10 10 8 3 6 5 5 6 5 4 3 4 4 7 86 33 13 12 10 12 22 38 60 44 43 46 82 93 85 62 49 34 38 56 70
12 10 7 4 4 6 8 8 9 9 13 12 7 8 5 10 10 8 10 10 7 6 8 41 51 94 22 24 19 8 12 20 51 49 53 73 84 85 94 82 69 84 86 84
6 4 5 8 10 11 10 8 8 16 40 83 50 7 7 12 21 18 17 24 18 17 12 9 8 86 100 68 41 7 10 17 24 50 63 61 63 76 95 100 100 98 100 98
7 11 13 14 12 11 11 9 10 18 76 88 26 9 8 23 40 56 63 63 54 42 54 30 7 7 35 100 100 33 43 27 25 33 80 73 76 86 95 100 99 90 100 100
19 17 15 12 11 11 9 14 11 16 30 39 20 25 42 63 62 64 89 96 100 92 72 36 21 7 63 99 85 10 7 26 28 37 69 97 100 94 78 91 100 100 100 94
21 17 12 10 14 14 10 13 15 26 56 70 46 47 53 70 93 100 93 96 100 92 82 75 80 29 12 57 73 33 14 18 11 33 44 50 99 100 88 77 89 91 88 75
18 13 11 10 24 20 20 38 83 100 98 92 57 98 83 99 100 100 100 100 100 100 85 90 93 65 27 10 11 26 30 37 54 58 83 58 96 100 100 100 96 81 69 69
15 13 11 18 36 57 95 86 100 100 97 97 94 100 100 100 100 100 99 100 100 100 78 95 74 72 48 17 6 34 88 78 40 65 100 100 100 100 97 95 92 95 95 86
31 21 13 45 100 100 100 99 100 98 96 95 99 100 100 100 100 100 100 100 100 92 80 87 66 44 77 79 12 30 96 48 67 64 56 92 100 98 100 100 100 99 98 98
39 30 34 85 97 100 100 100 100 100 100 100 99 100 100 100 100 100 100 100 89 89 71 59 45 98 82 78 58 76 98 98 81 96 62 72 100 100 97 94 100 100 98 98
44 43 93 100 99 100 100 100 100 100 100 100 100 100 100 100 100 100 100 100 100 91 71 57 58 100 100 100 100 100 79 73 100 100 100 100 100 100 100 100 100 100 100 100
50 89 100 95 91 100 99 100 100 100 100 100 98 98 100 100 100 100 91 99 92 81 84 82 70 100 100 100 100 100 100 100 100 100 100 100 100 100 100 100 100 100 100 100
78 100 98 87 91 100 99 100 98 100 100 100 100 100 100 100 100 91 72 60 98 100 100 71 94 100 100 100 100 100 100 100 98 100 96 96 100 100 100 100 100 100 100 100
100 100 94 95 96 94 100 100 100 100 100 100 100 97 100 97 98 96 96 100 100 100 100 100 100 100 100 100 100 100 100 100 100 100 100 100 100 100 100 100 100 100 100 100